Regional Weather Roundup
Issued by NWS Sterling, VA

Current Version | Previous Version | Text Only | Print | Product List | Glossary On
Versions: 1 2 3 4 5 6 7 8 9 10 11 12 13 14 15 16 17 18 19 20 21 22 23 24 25 26 27
000
ASUS41 KLWX 291110
RWRLWX

REGIONAL WEATHER ROUNDUP
NATIONAL WEATHER SERVICE BALTIMORE MD/WASHINGTON DC
700 AM EDT SUN MAY 29 2016

Note: "FAIR" indicates few or no clouds below 12,000 feet
with no significant weather and/or obstructions to visibility.
 TC=TEMPERATURE CELSIUS

 * =Non NWS site. Station does not report precipitation (e.g. rain,
    snow, etc.), thunder, or fog.

DCZ001-MDZ009-015-VAZ040>042-051-053>054-291200-
WASHINGTON METRO

CITY           SKY/WX    TMP DP  RH WIND       PRES   REMARKS
WASHINGTON NAT PTSUNNY   68  63  84 CALM      30.16R
DULLES         PTSUNNY   67  62  84 S3        30.15R
ANDREWS AFB    MOSUNNY   62  60  93 S1        30.15R
FT BELVOIR     FAIR      62  61  96 CALM      30.15R
QUANTICO       FAIR      66  63  90 NW3       30.16R
COLLEGE PARK*  FAIR      63  61  94 CALM      30.15S
LEESBURG*      FAIR      64  64 100 CALM      30.16S
MANASSAS*      SUNNY     63  63 100 CALM      30.15R

$$

MDZ006>007-011-014-291200-
BALTIMORE METRO

CITY           SKY/WX    TMP DP  RH WIND       PRES   REMARKS
BWI AIRPORT    PTSUNNY   63  59  87 CALM      30.15S
MD SCIENCE CTR   N/A     69  61  75 MISG      30.16R
MARTIN STATE   PTSUNNY   70  66  88 CALM      30.17R
ANNAPOLIS      CLOUDY    67  65  93 CALM      30.15R
FORT MEADE*    MOSUNNY   59  57  94 CALM      30.18S

$$

MDZ012-015-019>023-291200-
MARYLAND EASTERN SHORE

CITY           SKY/WX    TMP DP  RH WIND       PRES   REMARKS
OCEAN CITY     FOG       66  65  96 CALM      30.16S VSB 1/4
SALISBURY      FOG       64  63  96 CALM      30.16R VSB 1/2
BAY BRIDGE AP* CLOUDY    68  66  94 CALM      30.15F
CAMBRIDGE*       N/A    N/A N/A N/A CALM      30.15S
EASTON*        SUNNY     66  66 100 CALM      30.20R

$$

MDZ017>025-291200-
SOUTHERN MARYLAND

CITY           SKY/WX    TMP DP  RH WIND       PRES   REMARKS
PATUXENT RIVER MOSUNNY   64  62  93 CALM      30.15R
ST INIGOES     MOSUNNY   65  63  93 CALM      30.14R
LEONARDTOWN*   MOSUNNY   63  61  94 CALM      30.17R

$$

MDZ003>005-291200-
NORTH CENTRAL MARYLAND

CITY           SKY/WX    TMP DP  RH WIND       PRES   REMARKS
FREDERICK*     SUNNY     64  64 100 CALM      30.17F
HAGERSTOWN APT MOSUNNY   68  62  81 CALM      30.14R
WESTMINSTER*   CLOUDY    66  63  88 SE3       30.16S

$$

MDZ501>502-291200-
WESTERN MARYLAND

CITY           SKY/WX    TMP DP  RH WIND       PRES   REMARKS
OAKLAND*       NOT AVBL
CUMBERLAND*      N/A     64  64 100 CALM      30.18R

$$

VAZ025>031-291200-
SHENANDOAH VALLEY

CITY           SKY/WX    TMP DP  RH WIND       PRES   REMARKS
WINCHESTER*    FAIR      64  61  88 CALM      30.14R
FRONT ROYAL*   FAIR      63  61  94 CALM      30.13S
LURAY*         FAIR      61  61 100 CALM      30.16S
NEW MARKET*      N/A     61  61 100 CALM      30.15S VSB 1/4
STAUNTON*      FAIR      60  59  98 CALM      30.19S FOG
WAYNESBORO*    FAIR      63  59  88 CALM      30.18R

$$

WVZ021-048>050-054>055-291200-
EASTERN WEST VIRGINIA PANHANDLE

CITY           SKY/WX    TMP DP  RH WIND       PRES   REMARKS
MARTINSBURG    FAIR      62  61  96 CALM      30.13R FOG
PETERSBURG*    FAIR      63  62  97 CALM      30.17R FOG

$$

VAZ036>039-050-291200-
CENTRAL FOOTHILLS

CITY           SKY/WX    TMP DP  RH WIND       PRES   REMARKS
CHARLOTTESVILL FAIR      64  61  90 S5        30.15R
CULPEPER*      FAIR      62  62 100 CALM      30.16R FOG
ORANGE*        FAIR      63  63 100 CALM      30.17R FOG
GORDONSVILLE*  FAIR      61  61  99 CALM      30.15R
WARRENTON*     FAIR      63  58  86 CALM      30.15S

$$

VAZ055>057-291200-
NORTH AND CENTRAL PIEDMONT

CITY           SKY/WX    TMP DP  RH WIND       PRES   REMARKS
FREDERICKSBRG* FAIR      62  62 100 CALM      30.14S
STAFFORD*      FAIR      58  56  94 CALM      30.19S

$$

NCZ024-NYZ072-PAZ021-071-VAZ022-071-291200-
OTHER REGIONAL OBSERVATIONS

CITY           SKY/WX    TMP DP  RH WIND       PRES   REMARKS
NEW YORK CITY  SUNNY     73  56  54 W8G17     30.17R
PHILADELPHIA   PTSUNNY   67  58  72 S3        30.17R
PITTSBURGH     CLOUDY    70  64  81 CALM      30.12S
ROANOKE        CLOUDY    66  61  84 CALM      30.19R
RICHMOND       PTSUNNY   65  64  97 CALM      30.14S
RALEIGH        LGT RAIN  70  68  93 NE6       30.10S

$$

ANZ530>537-291200-
MARINE OBSERVATIONS

STATION/POSITION TIME  TEMP    WIND        PRES
                       AIR SEA DIR/SP/G
                 (UTC) (F)     (DEG/KT/KT) (MB)
THOMAS PT LIGHT  1100   68 67   CALM  /  1 1022.4R
BALT KEY BRIDGE  1000   68     140/  3/  3 1020.8R
COVE POINT       1000   67     190/  5/  6 1021.2R
LEWISETTA        1000   68 65  120/  3/  4 1020.3R
SOLOMONS ISLAND  1000   66 67   CALM  /  1   N/A
PINEY POINT      1000          140/  4/  4   N/A

$$





USA.gov is the U.S. government's official web portal to all federal, state and local government web resources and services.